Flag for Germany Weather past 2 weeks in Hannover, Lower Saxony, Germany

Now
66 °F

Light rain. Partly sunny.


Feels Like: 66 °F
Forecast: 61 / 79 °F
Wind: 5 mph from East

Location: Hannover

Current Time: Jul 25, 2014 at 2:09:13 PM

Latest Report: Jul 25, 2014 at 1:20 PM


Visibility: N/A

Pressure: 29.98 "Hg

Humidity: 94%

Dew point: 64 °F

Location of HannoverLocation

Historic Weather in Hannover — Graph

°F

Hannover temperature yesterday

Maximum temperature yesterday: 75 °F (at 12:50 PM)
Minimum temperature yesterday: 55 °F (at 5:50 AM)
Average temperature yesterday: 65 °F

Past Weeks' High & Low Weather Summary

 TemperatureHumidityPressure
High91 °F (Jul 19, 2:50 PM)100% (Jul 10, 10:50 PM)30.18 "Hg (Jul 10, 10:50 PM)
Low50 °F (Jul 12, 4:50 AM)26% (Jul 19, 2:20 PM)29.68 "Hg (Jul 13, 6:20 PM)
Average69 °F72%29.97 "Hg
* Reported Jul 10 12:20 PM — Jul 25 12:50 PM, Hannover, Weather by CustomWeather, © 2014

Note: Actual official high and low records may vary slightly from our data, if they occured in-between our weather recording intervals... More about our weather records

Advertising

Hannover weather history for previous 24 hours

 ConditionsComfort  
Time TempWeatherWind HumidityBarometerVisibility
12:50 PM
Jul 25
64 °FLight rain. Partly sunny.6 mph100%29.98 "HgN/A
12:20 PM64 °FLight rain. Partly sunny.5 mph94%29.98 "Hg4 mi
11:50 AM63 °FLight rain. Partly sunny.5 mph100%29.98 "Hg5 mi
11:20 AM63 °FRain. Broken clouds.5 mph100%29.98 "Hg1 mi
10:50 AM63 °FRain. Mostly cloudy.6 mph94%29.98 "Hg2 mi
10:20 AM63 °FLight rain. Mostly cloudy.3 mph94%29.98 "Hg3 mi
9:50 AM61 °FLight rain. Mostly cloudy.3 mph100%29.98 "Hg3 mi
9:20 AM61 °FRain. More clouds than sun.2 mph100%29.98 "Hg2 mi
8:50 AM61 °FRain. More clouds than sun.6 mph94%29.98 "Hg2 mi
8:20 AM61 °FRain. Low clouds.6 mph94%29.98 "Hg3 mi
7:50 AM61 °FRain. Low clouds.5 mph94%29.98 "Hg3 mi
7:20 AM61 °FLight rain. Overcast.6 mph94%29.98 "Hg5 mi
6:50 AM61 °FLight rain. More clouds than sun.6 mph94%29.98 "Hg5 mi
6:20 AM61 °FLight rain. Mostly cloudy.7 mph94%29.98 "Hg5 mi
5:50 AM61 °FLight rain. Passing clouds.6 mph94%30.01 "Hg5 mi
5:20 AM61 °FLight rain. Partly cloudy.7 mph94%30.01 "Hg5 mi
4:50 AM61 °FLight rain. Partly cloudy.6 mph94%30.01 "Hg5 mi
4:20 AM61 °FLight rain. Partly cloudy.5 mph94%30.01 "HgN/A
3:50 AM61 °FLight rain. Partly cloudy.5 mph94%30.01 "HgN/A
3:20 AM61 °FLight rain. Clear.6 mph94%30.01 "HgN/A
2:50 AM61 °FClear.5 mph94%30.01 "Hg10 mi
2:20 AM61 °FCool.5 mph94%30.01 "HgN/A
1:50 AM61 °FClear.6 mph94%30.04 "Hg10 mi
1:20 AM61 °FClear.6 mph94%30.04 "Hg10 mi
12:50 AM61 °FPassing clouds.5 mph94%30.04 "HgN/A
12:20 AM61 °FClear.3 mph94%30.04 "Hg10 mi
11:50 PM
Jul 24
61 °FClear.2 mph94%30.04 "Hg10 mi
11:20 PM61 °FPartly cloudy.3 mph94%30.04 "HgN/A
10:50 PM61 °FPartly cloudy.No wind94%30.04 "HgN/A
10:20 PM61 °FBroken clouds.1 mph94%30.07 "HgN/A
9:50 PM61 °FBroken clouds.7 mph94%30.04 "HgN/A
9:20 PM61 °FLight rain. Broken clouds.5 mph94%30.04 "HgN/A
8:50 PM61 °FLight rain. Broken clouds.7 mph94%30.04 "HgN/A
8:20 PM63 °FBroken clouds.14 mph83%30.07 "HgN/A
7:50 PM61 °FPartly sunny.3 mph94%30.04 "HgN/A
7:20 PM63 °FSprinkles. Scattered clouds.2 mph77%30.04 "HgN/A
6:50 PM63 °FThunderstorms. Scattered clouds.16 mph77%30.04 "HgN/A
6:20 PM72 °FThundershowers. Broken clouds.3 mph69%30.01 "HgN/A
5:50 PM72 °FPartly sunny.1 mph73%30.01 "HgN/A
5:20 PM73 °FSprinkles. Partly sunny.5 mph57%30.01 "HgN/A
4:50 PM73 °FPartly sunny.7 mph57%30.01 "HgN/A
4:20 PM72 °FBroken clouds.7 mph57%30.04 "HgN/A
3:50 PM72 °FBroken clouds.9 mph57%30.04 "HgN/A
3:20 PM70 °FBroken clouds.12 mph60%30.04 "HgN/A
2:50 PM70 °FBroken clouds.13 mph60%30.04 "HgN/A
2:20 PM72 °FBroken clouds.20 mph61%30.04 "HgN/A
Weather by CustomWeather, © 2014

See weather overviewHow to use our weather pages